Regional Weather Roundup
Issued by NWS

Home | Current Version | Previous Version | Text Only | Print | Product List | Glossary On
Versions: 1 2 3 4 5 6 7 8 9 10 11 12 13 14 15 16 17 18 19 20 21 22 23 24 25 26 27 28 29 30 31 32 33 34 35 36 37 38 39 40 41 42 43 44 45 46 47 48 49 50
000
ASUS42 KKEY 311910
RWRKEY

FLORIDA REGIONAL WEATHER ROUNDUP FOR THE FLORIDA KEYS
NATIONAL WEATHER SERVICE KEY WEST FLORIDA
300 PM EDT THU JUL 31 2014

...SOUTH FLORIDA AND THE KEYS...

CITY           SKY/WX    TMP DP  RH WIND       PRES   REMARKS
FORT MYERS     MOSUNNY   93  71  48 NW10      29.97S HX 100
SW REGIONAL AP PTSUNNY   88  73  61 S12       29.97F HX  95
NAPLES         CLOUDY    84  75  74 SE5       29.98F HX  92
MIAMI          PTSUNNY   90  74  59 SE12G20   29.97F HX  99
WEST KENDALL   PTSUNNY   93  70  46 SW5       29.97F HX  99
HOMESTEAD      SUNNY     91  74  56 VRB6      29.97F HX 100
MARATHON       SUNNY     92  75  57 VRB5      29.99S HX 103
BOCA CHICA NAS PTSUNNY   88  74  63 W14G20    29.99F HX  96
KEY WEST INTL  MOSUNNY   89  75  63 SW8       29.99F HX  99

...INTERNATIONAL WEATHER...

CITY           SKY/WX    TMP DP  RH WIND       PRES   REMARKS
NASSAU BAHAMAS NOT AVBL
CANCUN MEXICO  MOSUNNY   90  73  58 SE12      29.99F HX  98
COZUMEL MEXICO PTSUNNY   86  77  74 S6        30.00S HX  97

ADJACENT COASTAL WATERS...

STATION/POSITION TIME  SKY/WX   TEMP    WIND        PRES    WAVE
                                AIR SEA DIR/SP/G            HT/PER
                 (UTC)          (F)     (DEG/KT/KT) (MB)    (FT/S)
PULASKI SHOAL LI 1900            85     340/  5/  6 1015.4F
SAND KEY         1900            85     230/  5/  7 1015.6F
SOMBRERO KEY     1900            86     230/  5/  7 1016.3F
LONG KEY         1800            86 91  220/  6/  7 1016.5F
MOLASSES REEF    1900            85 87  220/  4/  5 1015.4F
FOWEY ROCKS      1900            87 86  160/ 11/ 12 1015.5F
Buoy 42080       NOT AVBL

$$


USA.gov is the U.S. government's official web portal to all federal, state and local government web resources and services.